Time,TemperatureF,DewpointF,PressureIn,WindDirection,WindDirectionDegrees,WindSpeedMPH,WindSpeedGustMPH,Humidity,HourlyPrecipIn,Conditions,Clouds,dailyrainin,SoftwareType,DateUTC
2013-09-04 00:11:00,72.0,55.0,27.87,WNW,291,10.0,20.0,55,0.00,,,0.00,,2013-09-04 07:11:00,
2013-09-04 00:22:00,71.0,55.0,27.87,NW,319,9.0,15.0,57,0.00,,,0.00,,2013-09-04 07:22:00,
2013-09-04 00:42:00,70.0,55.0,27.87,NNW,338,10.0,21.0,60,0.00,,,0.00,,2013-09-04 07:42:00,
2013-09-04 00:52:00,70.0,56.0,27.87,NW,316,10.0,18.0,61,0.00,,,0.00,,2013-09-04 07:52:00,
2013-09-04 01:12:00,70.0,55.0,27.87,WNW,295,7.0,15.0,60,0.00,,,0.00,,2013-09-04 08:12:00,
2013-09-04 01:22:00,69.0,55.0,27.87,NW,319,11.0,25.0,62,0.00,,,0.00,,2013-09-04 08:22:00,
2013-09-04 01:52:00,69.0,56.0,27.87,NW,309,8.0,18.0,63,0.00,,,0.00,,2013-09-04 08:52:00,
2013-09-04 02:11:00,69.0,55.0,27.88,NW,318,7.0,15.0,62,0.00,,,0.00,,2013-09-04 09:11:00,
2013-09-04 02:22:00,69.0,55.0,27.88,NW,309,8.0,13.0,62,0.00,,,0.00,,2013-09-04 09:22:00,
2013-09-04 02:43:00,68.0,55.0,27.88,NW,310,7.0,18.0,63,0.00,,,0.00,,2013-09-04 09:43:00,
2013-09-04 02:53:00,68.0,55.0,27.87,WNW,295,8.0,16.0,63,0.00,,,0.00,,2013-09-04 09:53:00,
2013-09-04 03:12:00,68.0,55.0,27.87,West,280,10.0,18.0,63,0.00,,,0.00,,2013-09-04 10:12:00,
2013-09-04 03:23:00,68.0,55.0,27.88,NW,318,10.0,17.0,63,0.00,,,0.00,,2013-09-04 10:23:00,
2013-09-04 03:42:00,68.0,55.0,27.88,NW,314,11.0,17.0,63,0.00,,,0.00,,2013-09-04 10:42:00,
2013-09-04 03:52:00,68.0,55.0,27.88,West,273,9.0,16.0,63,0.00,,,0.00,,2013-09-04 10:52:00,
2013-09-04 04:12:00,68.0,54.0,27.88,WNW,293,10.0,17.0,62,0.00,,,0.00,,2013-09-04 11:12:00,
2013-09-04 04:22:00,69.0,55.0,27.88,WNW,293,10.0,15.0,61,0.00,,,0.00,,2013-09-04 11:22:00,
2013-09-04 04:51:00,68.0,54.0,27.88,WNW,288,6.0,12.0,62,0.00,,,0.00,,2013-09-04 11:51:00,
2013-09-04 05:11:00,68.0,54.0,27.89,West,276,7.0,16.0,62,0.00,,,0.00,,2013-09-04 12:11:00,
2013-09-04 05:21:00,68.0,54.0,27.89,NNW,342,5.0,10.0,62,0.00,,,0.00,,2013-09-04 12:21:00,
2013-09-04 05:42:00,67.0,54.0,27.89,NW,312,3.0,9.0,64,0.00,,,0.00,,2013-09-04 12:42:00,
2013-09-04 05:52:00,67.0,55.0,27.88,NW,313,4.0,7.0,65,0.00,,,0.00,,2013-09-04 12:52:00,
2013-09-04 06:11:00,67.0,55.0,27.89,WNW,293,7.0,12.0,65,0.00,,,0.00,,2013-09-04 13:11:00,
2013-09-04 06:21:00,66.0,55.0,27.89,WNW,302,6.0,14.0,68,0.00,,,0.00,,2013-09-04 13:21:00,
2013-09-04 06:52:00,66.0,55.0,27.89,North,4,7.0,11.0,68,0.00,,,0.00,,2013-09-04 13:52:00,
2013-09-04 07:11:00,65.0,55.0,27.89,NW,315,9.0,14.0,69,0.00,,,0.00,,2013-09-04 14:11:00,
2013-09-04 07:21:00,66.0,55.0,27.89,NW,307,5.0,9.0,68,0.00,,,0.00,,2013-09-04 14:21:00,
2013-09-04 07:42:00,66.0,55.0,27.90,NNW,329,6.0,12.0,67,0.00,,,0.00,,2013-09-04 14:42:00,
2013-09-04 07:51:00,66.0,55.0,27.90,NW,310,4.0,8.0,67,0.00,,,0.00,,2013-09-04 14:51:00,
2013-09-04 08:12:00,67.0,55.0,27.90,WNW,288,6.0,11.0,65,0.00,,,0.00,,2013-09-04 15:12:00,
2013-09-04 08:22:00,67.0,55.0,27.90,WNW,299,5.0,13.0,65,0.00,,,0.00,,2013-09-04 15:22:00,
2013-09-04 08:43:00,68.0,55.0,27.90,NNW,330,8.0,16.0,64,0.00,,,0.00,,2013-09-04 15:43:00,
2013-09-04 08:53:00,69.0,56.0,27.90,WNW,295,6.0,12.0,63,0.00,,,0.00,,2013-09-04 15:53:00,
2013-09-04 09:12:00,69.0,55.0,27.90,WNW,290,7.0,11.0,61,0.00,,,0.00,,2013-09-04 16:12:00,
2013-09-04 09:23:00,70.0,55.0,27.90,NW,312,5.0,11.0,59,0.00,,,0.00,,2013-09-04 16:23:00,
2013-09-04 09:43:00,72.0,56.0,27.90,NNW,335,3.0,8.0,58,0.00,,,0.00,,2013-09-04 16:43:00,
2013-09-04 09:53:00,72.0,57.0,27.91,NNW,346,3.0,8.0,59,0.00,,,0.00,,2013-09-04 16:53:00,
2013-09-04 10:13:00,72.0,56.0,27.90,NNE,25,3.0,7.0,57,0.00,,,0.00,,2013-09-04 17:13:00,
2013-09-04 10:22:00,73.0,57.0,27.90,WNW,294,3.0,7.0,57,0.00,,,0.00,,2013-09-04 17:22:00,
2013-09-04 10:42:00,74.0,56.0,27.90,NNW,330,3.0,6.0,54,0.00,,,0.00,,2013-09-04 17:42:00,
2013-09-04 10:52:00,75.0,57.0,27.90,NNW,338,2.0,5.0,53,0.00,,,0.00,,2013-09-04 17:52:00,
2013-09-04 11:12:00,75.0,56.0,27.89,WNW,285,0.0,5.0,51,0.00,,,0.00,,2013-09-04 18:12:00,
2013-09-04 11:21:00,76.0,56.0,27.89,NNW,328,2.0,5.0,50,0.00,,,0.00,,2013-09-04 18:21:00,
2013-09-04 11:42:00,78.0,59.0,27.89,East,84,0.0,2.0,53,0.00,,,0.00,,2013-09-04 18:42:00,
2013-09-04 11:52:00,79.0,60.0,27.88,SE,141,0.0,2.0,52,0.00,,,0.00,,2013-09-04 18:52:00,
2013-09-04 12:11:00,80.0,59.0,27.88,ESE,109,0.0,1.0,49,0.00,,,0.00,,2013-09-04 19:11:00,
2013-09-04 12:22:00,81.0,59.0,27.87,SE,137,0.0,3.0,48,0.00,,,0.00,,2013-09-04 19:22:00,
2013-09-04 12:42:00,82.0,59.0,27.87,NNW,340,1.0,4.0,46,0.00,,,0.00,,2013-09-04 19:42:00,
2013-09-04 12:52:00,82.0,60.0,27.87,ESE,116,0.0,4.0,48,0.00,,,0.00,,2013-09-04 19:52:00,
2013-09-04 13:11:00,84.0,61.0,27.86,ESE,115,0.0,2.0,46,0.00,,,0.00,,2013-09-04 20:11:00,
2013-09-04 13:22:00,85.0,61.0,27.86,SE,126,1.0,2.0,44,0.00,,,0.00,,2013-09-04 20:22:00,
2013-09-04 13:43:00,85.0,60.0,27.86,ESE,123,0.0,3.0,43,0.00,,,0.00,,2013-09-04 20:43:00,
2013-09-04 13:53:00,86.0,60.0,27.86,NNE,30,0.0,2.0,41,0.00,,,0.00,,2013-09-04 20:53:00,
2013-09-04 14:11:00,87.0,60.0,27.85,NE,49,1.0,5.0,41,0.00,,,0.00,,2013-09-04 21:11:00,
2013-09-04 14:22:00,87.0,60.0,27.85,SE,131,0.0,2.0,41,0.00,,,0.00,,2013-09-04 21:22:00,
2013-09-04 14:44:00,88.0,59.0,27.84,WNW,297,0.0,2.0,38,0.00,,,0.00,,2013-09-04 21:44:00,
2013-09-04 14:54:00,89.0,61.0,27.84,ESE,117,2.0,6.0,39,0.00,,,0.00,,2013-09-04 21:54:00,
2013-09-04 15:14:00,88.0,62.0,27.83,ENE,75,0.0,3.0,42,0.00,,,0.00,,2013-09-04 22:14:00,
2013-09-04 15:23:00,89.0,61.0,27.83,East,100,0.0,2.0,39,0.00,,,0.00,,2013-09-04 22:23:00,
2013-09-04 15:54:00,91.0,62.0,27.82,East,94,0.0,2.0,38,0.00,,,0.00,,2013-09-04 22:54:00,
2013-09-04 16:12:00,90.0,60.0,27.82,ESE,113,0.0,4.0,37,0.00,,,0.00,,2013-09-04 23:12:00,
2013-09-04 16:22:00,90.0,60.0,27.81,East,85,0.0,1.0,37,0.00,,,0.00,,2013-09-04 23:22:00,
2013-09-04 16:42:00,92.0,62.0,27.81,ESE,110,0.0,1.0,37,0.00,,,0.00,,2013-09-04 23:42:00,
2013-09-04 16:52:00,93.0,61.0,27.79,ESE,115,0.0,2.0,35,0.00,,,0.00,,2013-09-04 23:52:00,
2013-09-04 17:11:00,93.0,62.0,27.79,ESE,112,0.0,1.0,36,0.00,,,0.00,,2013-09-05 00:11:00,
2013-09-04 17:22:00,94.0,63.0,27.79,East,91,0.0,1.0,36,0.00,,,0.00,,2013-09-05 00:22:00,
2013-09-04 18:11:00,95.0,60.0,27.78,ESE,120,0.0,1.0,32,0.00,,,0.00,,2013-09-05 01:11:00,
2013-09-04 18:21:00,95.0,61.0,27.78,SE,130,0.0,2.0,33,0.00,,,0.00,,2013-09-05 01:21:00,
2013-09-04 18:42:00,96.0,60.0,27.78,SSW,210,0.0,1.0,31,0.00,,,0.00,,2013-09-05 01:42:00,
2013-09-04 18:52:00,95.0,60.0,27.77,ENE,61,0.0,2.0,31,0.00,,,0.00,,2013-09-05 01:52:00,
2013-09-04 19:11:00,92.0,59.0,27.77,East,83,0.0,1.0,33,0.00,,,0.00,,2013-09-05 02:11:00,
2013-09-04 19:21:00,87.0,57.0,27.77,East,83,0.0,0.0,36,0.00,,,0.00,,2013-09-05 02:21:00,
2013-09-04 20:11:00,81.0,58.0,27.78,SW,225,0.0,1.0,46,0.00,,,0.00,,2013-09-05 03:11:00,
2013-09-04 20:22:00,80.0,58.0,27.79,SSW,197,0.0,1.0,47,0.00,,,0.00,,2013-09-05 03:22:00,
2013-09-04 20:45:00,79.0,56.0,27.79,SSE,162,0.0,1.0,46,0.00,,,0.00,,2013-09-05 03:45:00,
2013-09-04 20:54:00,79.0,58.0,27.81,SSW,212,0.0,2.0,48,0.00,,,0.00,,2013-09-05 03:54:00,
2013-09-04 21:13:00,80.0,58.0,27.81,WNW,293,5.0,10.0,47,0.00,,,0.00,,2013-09-05 04:13:00,
2013-09-04 21:24:00,80.0,58.0,27.81,NNW,333,6.0,13.0,47,0.00,,,0.00,,2013-09-05 04:24:00,
2013-09-04 21:44:00,80.0,58.0,27.81,NW,307,7.0,15.0,47,0.00,,,0.00,,2013-09-05 04:44:00,
2013-09-04 21:53:00,80.0,59.0,27.81,West,280,5.0,12.0,48,0.00,,,0.00,,2013-09-05 04:53:00,
2013-09-04 22:12:00,79.0,58.0,27.81,NW,326,7.0,13.0,49,0.00,,,0.00,,2013-09-05 05:12:00,
2013-09-04 22:23:00,78.0,59.0,27.83,NNW,330,8.0,12.0,53,0.00,,,0.00,,2013-09-05 05:23:00,
2013-09-04 22:43:00,77.0,59.0,27.83,NW,316,7.0,18.0,54,0.00,,,0.00,,2013-09-05 05:43:00,
2013-09-04 22:52:00,77.0,59.0,27.84,WNW,288,6.0,11.0,54,0.00,,,0.00,,2013-09-05 05:52:00,
2013-09-04 23:12:00,77.0,60.0,27.84,NW,304,8.0,15.0,55,0.00,,,0.00,,2013-09-05 06:12:00,
2013-09-04 23:21:00,76.0,59.0,27.84,WNW,295,9.0,18.0,56,0.00,,,0.00,,2013-09-05 06:21:00,
2013-09-04 23:52:00,75.0,59.0,27.83,WNW,293,10.0,16.0,57,0.00,,,0.00,,2013-09-05 06:52:00,